Weather History for Crestview, FL

Change the Weather History Date:

Monday, November 12, 2012

  Actual Average Record
Temperature  
Mean Temperature 64 °F -  
Max Temperature 75 °F 72 °F 82 °F (2003)
Min Temperature 53 °F 42 °F 27 °F (2011)
Degree Days  
Heating Degree Days 1    
Growing Degree Days 14 (Base 50)    
Moisture  
Dew Point 59 °F    
Average Humidity 87    
Maximum Humidity 94    
Minimum Humidity 69    
Precipitation  
Precipitation 0.15 in - - ()
Sea Level Pressure  
Sea Level Pressure 30.23 in    
Wind  
Wind Speed 6 mph (North)    
Max Wind Speed 17 mph    
Max Gust Speed 20 mph    
Visibility 9 miles    
Events Rain , Thunderstorm    
Averages and records for this station are not official NWS values.
T = Trace of Precipitation, MM = Missing Value Source: NWS Daily Summary

Daily Weather History Graph

Daily Weather History Graph

Search for Another Location

Airport:

Trip Planner

Search our weather history database for the weather conditions in past years. The results will help you decide how hot, cold, wet, or windy it might be!

Date:

Astronomy

Nov. 12, 2012 Rise Set
Actual Time 6:10 AM CST 4:49 PM CST
Civil Twilight 5:44 AM CST 5:15 PM CST
Nautical Twilight 5:15 AM CST 5:44 PM CST
Astronomical Twilight 4:47 AM CST 6:12 PM CST
Moon 4:38 AM CST (11/12) 3:52 PM CST (11/12)
Length of Visible Light 11h 30m
Length of Day
10h 39m
Waning Crescent, 2% of the Moon is Illuminated
Nov 12
Waning Crescent
Nov 13
New
Nov 20
First Quarter
Nov 28
Full
Dec 6
Last Quarter

Hourly Weather History & Observations

Time (CST) Temp. Dew Point Humidity Pressure Visibility Wind Dir Wind Speed Gust Speed Precip Events Conditions
12:53 AM 53.1 °F 51.1 °F 93% 30.22 in 10.0 mi Calm Calm - N/A   Clear
1:53 AM 55.9 °F 53.1 °F 90% 30.21 in 10.0 mi Calm Calm - N/A   Scattered Clouds
2:53 AM 54.0 °F 52.0 °F 93% 30.20 in 10.0 mi Calm Calm - N/A   Clear
3:53 AM 60.1 °F 55.9 °F 86% 30.20 in 10.0 mi ESE 3.5 mph - N/A   Clear
4:53 AM 60.1 °F 57.0 °F 90% 30.19 in 10.0 mi SE 3.5 mph - N/A   Clear
5:53 AM 62.1 °F 59.0 °F 90% 30.19 in 10.0 mi SE 6.9 mph - N/A   Clear
6:53 AM 63.0 °F 61.0 °F 93% 30.21 in 9.0 mi SE 5.8 mph - N/A   Partly Cloudy
7:04 AM 64.4 °F 60.8 °F 88% 30.22 in 9.0 mi SE 5.8 mph - N/A   Mostly Cloudy
7:53 AM 64.9 °F 62.1 °F 90% 30.22 in 9.0 mi SE 4.6 mph - N/A   Overcast
8:00 AM 64.4 °F 62.6 °F 94% 30.22 in 9.0 mi ESE 4.6 mph - N/A   Overcast
8:53 AM 70.0 °F 64.0 °F 81% 30.23 in 10.0 mi SE 6.9 mph - N/A   Mostly Cloudy
9:53 AM 73.0 °F 64.9 °F 76% 30.24 in 10.0 mi South 8.1 mph 17.3 mph N/A   Mostly Cloudy
10:02 AM 75.2 °F 64.4 °F 69% 30.24 in 10.0 mi SSE 8.1 mph - N/A   Overcast
10:20 AM 73.4 °F 64.4 °F 73% 30.25 in 10.0 mi Variable 5.8 mph - N/A   Overcast
10:27 AM 75.2 °F 64.4 °F 69% 30.24 in 10.0 mi Variable 6.9 mph - N/A   Overcast
10:53 AM 75.0 °F 64.9 °F 71% 30.23 in 10.0 mi South 9.2 mph - N/A   Overcast
11:53 AM 73.9 °F 64.9 °F 73% 30.22 in 10.0 mi South 8.1 mph - 0.00 in   Overcast
12:53 PM 72.0 °F 66.9 °F 84% 30.19 in 10.0 mi South 6.9 mph - 0.01 in   Overcast
1:50 PM 73.4 °F 66.2 °F 78% 30.18 in 10.0 mi SSE 6.9 mph - N/A   Overcast
1:53 PM 73.0 °F 66.0 °F 79% 30.17 in 10.0 mi South 5.8 mph - 0.00 in Rain Light Rain
2:15 PM 66.2 °F 64.4 °F 94% 30.20 in 1.8 mi NW 17.3 mph - 0.07 in Rain Heavy Rain
2:20 PM 66.2 °F 64.4 °F 94% 30.20 in 1.8 mi NNW 11.5 mph - 0.09 in Rain Heavy Rain
2:25 PM 66.2 °F 64.4 °F 94% 30.20 in 3.0 mi NNW 12.7 mph 19.6 mph 0.09 in Rain Rain
2:39 PM 64.4 °F 62.6 °F 94% 30.20 in 3.0 mi NNW 12.7 mph - 0.14 in Rain Rain
2:43 PM 64.4 °F 62.6 °F 94% 30.20 in 5.0 mi NNW 13.8 mph - 0.14 in Rain , Thunderstorm Light Rain
2:53 PM 64.9 °F 61.0 °F 87% 30.20 in 10.0 mi NNW 9.2 mph - 0.14 in Rain , Thunderstorm Light Rain
2:58 PM 64.4 °F 60.8 °F 88% 30.20 in 10.0 mi NNW 9.2 mph - N/A   Overcast
3:53 PM 62.1 °F 59.0 °F 90% 30.22 in 9.0 mi NNW 8.1 mph - 0.00 in Rain Light Rain
4:14 PM 62.6 °F 59.0 °F 88% 30.24 in 2.5 mi NNW 8.1 mph - 0.00 in Rain Light Rain
4:22 PM 60.8 °F 59.0 °F 94% 30.24 in 6.0 mi NNW 6.9 mph - 0.00 in Rain Light Rain
4:46 PM 60.8 °F 57.2 °F 88% 30.24 in 10.0 mi North 9.2 mph - 0.00 in   Overcast
4:53 PM 60.1 °F 57.9 °F 93% 30.24 in 9.0 mi North 10.4 mph 16.1 mph 0.00 in Rain Light Rain
5:09 PM 59.0 °F 57.2 °F 94% 30.24 in 7.0 mi North 9.2 mph 17.3 mph 0.00 in Rain Light Rain
5:16 PM 59.0 °F 57.2 °F 94% 30.25 in 9.0 mi North 6.9 mph - 0.00 in   Overcast
5:53 PM 59.0 °F 55.9 °F 90% 30.26 in 10.0 mi North 5.8 mph - 0.00 in Rain Light Rain
6:08 PM 59.0 °F 55.4 °F 88% 30.26 in 10.0 mi North 5.8 mph - 0.00 in   Overcast
6:53 PM 57.9 °F 55.0 °F 90% 30.27 in 10.0 mi North 11.5 mph 18.4 mph 0.00 in   Overcast
7:42 PM 57.2 °F 53.6 °F 88% 30.29 in 10.0 mi North 9.2 mph 17.3 mph N/A   Overcast
7:53 PM 55.9 °F 53.1 °F 90% 30.28 in 10.0 mi North 11.5 mph - N/A   Overcast
8:24 PM 55.4 °F 53.6 °F 94% 30.29 in 10.0 mi North 9.2 mph - N/A   Overcast
8:53 PM 55.9 °F 52.0 °F 87% 30.28 in 10.0 mi North 9.2 mph 17.3 mph N/A   Overcast
9:53 PM 55.9 °F 52.0 °F 87% 30.29 in 10.0 mi North 10.4 mph - N/A   Overcast
10:18 PM 55.4 °F 51.8 °F 88% 30.30 in 10.0 mi North 10.4 mph 18.4 mph N/A   Overcast
10:53 PM 55.0 °F 50.0 °F 83% 30.29 in 10.0 mi North 9.2 mph 16.1 mph N/A   Overcast
11:04 PM 55.4 °F 50.0 °F 82% 30.29 in 10.0 mi North 9.2 mph 17.3 mph N/A   Overcast
11:53 PM 53.1 °F 48.9 °F 86% 30.28 in 10.0 mi North 6.9 mph - N/A   Overcast